logo
Search for airport 
image banner adimage banner adimage banner ad
image banner ad

FQIA - Inhaca

Located in , Mozambique

ICAO - FQIA, IATA - IHC

Data provided by Airmate  

General information

Coordinates: S25°59'49" E32°55'45"
Elevation is 8 feet MSL.
 
View others Airports in Maputo Province

Operational data

Special qualification required
Current time UTC:
Current local time:
Weather at : FQMA - Maputo / International ( 37 km )
METAR: FQMA 132000Z 07004KT 9999 FEW020 22/18 Q1020 NOSIG
TAF: TAF FQMA 131600Z 1318/1424 08006KT 9999 SCT020 TX26/1413Z TN22/1402Z BECMG 1320/1322 35007KT BECMG 1406/1408 29012KT BECMG 1412/1414 07007KT FEW025 BECMG 1418/1420 15007KT
View NOTAMs / SUP AIP / TFR affecting this airport [VIEW]
Communications frequencies: [VIEW]

Runways:

RWY identifierQFULength (ft)Width (ft)SurfaceLDA (ft)
10246198UNK
28246198UNK
18295398UNK
36295398UNK

Airport contact information

Address: Mozambique

Satellite view of FQIA